OKCER LKVO-LKTB

Flight info

Callsign OKCER
Flight time N/A
Altitude 13000
Route ELPON DCT TUMKA
Aircraft PC12/L-SDFGRWY/S

Departure

Time N/A
Airport Vodochody Airport (LKVO)

Arrival

Time 2026-04-21 20:31
Airport Brno-Tuřany Airport (LKTB)
Time Latitude Longitude Altitude Speed Heading
2026-04-21 20:01 49.77838 14.86458 13227 ft 252 kts 114°
2026-04-21 20:01 49.77032 14.88868 13226 ft 252 kts 114°
2026-04-21 20:01 49.76223 14.91279 13227 ft 252 kts 114°
2026-04-21 20:01 49.75413 14.93692 13227 ft 252 kts 114°
2026-04-21 20:02 49.74605 14.96095 13226 ft 252 kts 114°
2026-04-21 20:02 49.73806 14.98473 13222 ft 252 kts 114°
2026-04-21 20:02 49.72994 15.00884 13221 ft 253 kts 114°
2026-04-21 20:02 49.72181 15.03295 13222 ft 253 kts 114°
2026-04-21 20:03 49.71366 15.05711 13221 ft 254 kts 114°
2026-04-21 20:03 49.70550 15.08127 13224 ft 253 kts 114°
2026-04-21 20:03 49.69737 15.10534 13222 ft 253 kts 114°
2026-04-21 20:03 49.68922 15.12943 13222 ft 253 kts 114°
2026-04-21 20:04 49.68105 15.15354 13225 ft 253 kts 114°
2026-04-21 20:04 49.67291 15.17757 13225 ft 252 kts 114°
2026-04-21 20:04 49.66485 15.20133 13226 ft 252 kts 114°
2026-04-21 20:04 49.65669 15.22537 13225 ft 253 kts 114°
2026-04-21 20:05 49.64851 15.24943 13222 ft 253 kts 114°
2026-04-21 20:05 49.64036 15.27338 13222 ft 252 kts 114°
2026-04-21 20:05 49.63219 15.29737 13220 ft 252 kts 114°
2026-04-21 20:05 49.62401 15.32138 13220 ft 253 kts 114°
2026-04-21 20:06 49.61578 15.34549 13216 ft 254 kts 114°
2026-04-21 20:06 49.60756 15.36958 13217 ft 254 kts 114°
2026-04-21 20:06 49.59930 15.39373 13218 ft 254 kts 114°
2026-04-21 20:06 49.59116 15.41751 13218 ft 254 kts 114°
2026-04-21 20:07 49.58290 15.44163 13217 ft 255 kts 114°
2026-04-21 20:07 49.57460 15.46585 13213 ft 255 kts 114°
2026-04-21 20:07 49.56630 15.49005 13212 ft 255 kts 114°
2026-04-21 20:07 49.55801 15.51416 13212 ft 254 kts 114°
2026-04-21 20:08 49.54974 15.53823 13214 ft 254 kts 115°
2026-04-21 20:08 49.54145 15.56233 13215 ft 254 kts 115°
2026-04-21 20:08 49.53317 15.58636 13214 ft 254 kts 115°
2026-04-21 20:08 49.52498 15.61011 13210 ft 254 kts 115°
2026-04-21 20:09 49.51668 15.63418 13209 ft 254 kts 115°
2026-04-21 20:09 49.50837 15.65823 13209 ft 254 kts 115°
2026-04-21 20:09 49.50007 15.68226 13209 ft 254 kts 115°
2026-04-21 20:09 49.49176 15.70627 13209 ft 254 kts 115°
2026-04-21 20:10 49.48344 15.73029 13211 ft 254 kts 115°
2026-04-21 20:10 49.47516 15.75417 13206 ft 252 kts 115°
2026-04-21 20:10 49.46691 15.77790 13205 ft 250 kts 115°
2026-04-21 20:10 49.45876 15.80139 13204 ft 248 kts 115°
2026-04-21 20:11 49.45073 15.82448 13205 ft 247 kts 115°
2026-04-21 20:11 49.44264 15.84776 13209 ft 247 kts 115°
2026-04-21 20:11 49.43453 15.87102 13210 ft 246 kts 115°
2026-04-21 20:11 49.42641 15.89433 13207 ft 247 kts 115°
2026-04-21 20:12 49.41829 15.91762 13201 ft 247 kts 115°
2026-04-21 20:12 49.41016 15.94092 13202 ft 247 kts 114°
2026-04-21 20:12 49.40401 15.96518 13203 ft 243 kts 105°
2026-04-21 20:12 49.39880 15.98992 13203 ft 244 kts 105°
2026-04-21 20:13 49.39349 16.01467 13200 ft 244 kts 105°
2026-04-21 20:13 49.38814 16.03941 13201 ft 244 kts 105°
2026-04-21 20:13 49.38279 16.06417 13201 ft 244 kts 105°
2026-04-21 20:13 49.37746 16.08891 13201 ft 244 kts 105°
2026-04-21 20:14 49.37211 16.11366 13200 ft 244 kts 105°
2026-04-21 20:14 49.36683 16.13811 13200 ft 244 kts 105°
2026-04-21 20:14 49.36148 16.16280 13199 ft 244 kts 105°
2026-04-21 20:14 49.35611 16.18756 13200 ft 244 kts 105°
2026-04-21 20:15 49.35076 16.21222 13199 ft 244 kts 105°
2026-04-21 20:15 49.34539 16.23691 13203 ft 244 kts 105°
2026-04-21 20:15 49.34001 16.26165 13200 ft 245 kts 105°
2026-04-21 20:15 49.33461 16.28643 13202 ft 245 kts 105°
2026-04-21 20:16 49.32920 16.31120 13202 ft 245 kts 105°
2026-04-21 20:16 49.32381 16.33591 13203 ft 245 kts 105°
2026-04-21 20:16 49.31840 16.36063 13202 ft 245 kts 105°
2026-04-21 20:16 49.31299 16.38535 13204 ft 245 kts 105°
2026-04-21 20:17 49.30756 16.41012 13208 ft 246 kts 105°
2026-04-21 20:17 49.30211 16.43497 13208 ft 246 kts 105°
2026-04-21 20:17 49.29664 16.45986 13208 ft 247 kts 105°
2026-04-21 20:17 49.29115 16.48481 13209 ft 247 kts 105°
2026-04-21 20:18 49.28751 16.50136 13205 ft 247 kts 105°
2026-04-21 20:18 49.28023 16.53437 13203 ft 247 kts 106°
2026-04-21 20:18 49.27473 16.55932 13205 ft 247 kts 106°
2026-04-21 20:18 49.26922 16.58425 13092 ft 251 kts 106°
2026-04-21 20:19 49.26355 16.60984 12822 ft 256 kts 106°
2026-04-21 20:19 49.25779 16.63576 12555 ft 258 kts 106°
2026-04-21 20:19 49.25200 16.66185 12300 ft 259 kts 106°
2026-04-21 20:19 49.24621 16.68793 12037 ft 259 kts 106°
2026-04-21 20:20 49.24045 16.71375 11773 ft 253 kts 106°
2026-04-21 20:20 49.23487 16.73879 11514 ft 250 kts 106°
2026-04-21 20:20 49.22951 16.76392 11256 ft 246 kts 101°
2026-04-21 20:20 49.22697 16.78948 11004 ft 242 kts 94°
2026-04-21 20:21 49.22483 16.81499 10751 ft 241 kts 95°
2026-04-21 20:21 49.22259 16.84046 10504 ft 241 kts 95°
2026-04-21 20:21 49.22033 16.86598 10252 ft 241 kts 95°
2026-04-21 20:21 49.21809 16.89141 9994 ft 241 kts 95°
2026-04-21 20:22 49.21587 16.91662 9717 ft 241 kts 95°
2026-04-21 20:22 49.21138 16.96728 9160 ft 239 kts 95°
2026-04-21 20:22 49.20914 16.99246 8895 ft 239 kts 95°
2026-04-21 20:23 49.20689 17.01764 8635 ft 238 kts 95°
2026-04-21 20:23 49.20641 17.04258 8362 ft 232 kts 77°
2026-04-21 20:23 49.21364 17.06377 8104 ft 229 kts 46°
2026-04-21 20:23 49.22707 17.07631 7753 ft 226 kts 17°
2026-04-21 20:24 49.24210 17.07658 7245 ft 212 kts 349°
2026-04-21 20:24 49.25450 17.06545 6749 ft 209 kts 316°
2026-04-21 20:24 49.26050 17.04547 6240 ft 210 kts 281°
2026-04-21 20:24 49.25820 17.02364 5729 ft 211 kts 245°
2026-04-21 20:25 49.24842 17.00750 5217 ft 207 kts 208°
2026-04-21 20:25 49.23487 17.00273 4715 ft 198 kts 171°
2026-04-21 20:25 49.22276 17.01046 4211 ft 185 kts 133°
2026-04-21 20:25 49.21187 17.02152 3741 ft 203 kts 159°
2026-04-21 20:26 49.19759 17.02119 3489 ft 215 kts 193°
2026-04-21 20:26 49.18348 17.01345 3321 ft 216 kts 205°
2026-04-21 20:26 49.17135 17.00050 3318 ft 213 kts 224°
2026-04-21 20:26 49.16202 16.98241 3271 ft 218 kts 241°
2026-04-21 20:27 49.15560 16.96165 3350 ft 215 kts 252°
2026-04-21 20:27 49.15102 16.93993 3372 ft 214 kts 257°
2026-04-21 20:27 49.14725 16.91787 3362 ft 215 kts 258°
2026-04-21 20:27 49.14375 16.89518 3221 ft 225 kts 262°
2026-04-21 20:28 49.14106 16.87093 2963 ft 235 kts 267°
2026-04-21 20:28 49.13972 16.84653 2607 ft 224 kts 270°
2026-04-21 20:28 49.13940 16.82525 2200 ft 197 kts 278°
2026-04-21 20:28 49.14100 16.80422 1937 ft 198 kts 284°
2026-04-21 20:29 49.14292 16.78424 1587 ft 183 kts 282°
2026-04-21 20:29 49.14456 16.76698 1528 ft 143 kts 279°
2026-04-21 20:29 49.14576 16.75310 1349 ft 120 kts 283°
2026-04-21 20:29 49.14695 16.74160 1210 ft 104 kts 282°
2026-04-21 20:30 49.14796 16.73056 1050 ft 107 kts 281°
2026-04-21 20:30 49.14903 16.71955 933 ft 103 kts 281°
2026-04-21 20:30 49.14997 16.70909 793 ft 91 kts 282°
2026-04-21 20:30 49.15066 16.70071 776 ft 69 kts 283°
2026-04-21 20:31 49.15129 16.69439 776 ft 46 kts 277°
2026-04-21 20:31 49.15148 16.69272 776 ft 12 kts 291°
2026-04-21 20:31 49.15225 16.69228 778 ft 13 kts
2026-04-21 20:31 49.15313 16.69246 779 ft 13 kts
2026-04-21 20:32 49.15389 16.69244 779 ft 6 kts 309°
2026-04-21 20:32 49.15391 16.69228 779 ft 0 kts 274°